Vertical_Velocity
-4 -1 -0 -2 -2 -2 -4 -4 -4 -4 -4 0 2 3 3 0 2 7 -1 -1 -2 0 -3 -3 1 -0 -0 -2 0 3 5 4 -10 -5 -10 -1 -4 -3 -2 -2 -1 -5 -2
1 -1 -1 -0 -3 -4 -1 1 -1 1 2 -0 1 0 -3 -2 -3 -2 1 0 -1 -2 1 -1 1 -2 -1 -0 -1 -1 -0 6 -4 -10 1 -2 -2 3 1 -7 3 -2 -5
0 -0 -1 -1 -0 -0 0 0 0 -2 -0 0 -5 -0 2 -1 2 2 -2 -2 0 0 -1 -3 -4 -5 -1 -0 1 0 2 1 3 -2 -12 0 1 4 3 -1 -0 1 -3
0 -0 -1 -0 0 -0 -1 -2 -1 -2 -1 -1 3 0 2 1 2 1 -1 0 -1 -1 -1 -3 -3 -1 -3 -2 -1 -0 2 0 2 0 -6 -1 -3 9 -0 -0 -1 0 -2
1 1 1 -2 -2 -4 -5 -1 -4 -3 -1 -1 -2 2 0 1 0 0 0 -1 -2 1 1 0 1 3 0 -2 -6 0 -2 -1 1 -2 1 -3 -1 3 0 5 -0 1 0
0 -2 -4 -4 -4 -3 -2 -1 -3 -0 -2 -3 -3 -1 0 2 1 1 -2 -1 -0 -3 -1 1 1 1 1 2 3 1 -0 -2 2 -1 1 -2 3 -0 2 0 1 -0 -4
-2 -3 -2 -1 -1 -2 -5 -3 -2 -2 -1 -2 0 0 1 0 0 -1 -1 -2 -1 1 -2 -4 1 -1 -3 -2 1 0 0 2 2 1 0 -1 -2 2 -1 2 0 -1 -0
-1 0 -2 -1 -1 -3 -4 -3 -1 -3 0 -0 0 -1 -0 -1 -0 -1 -3 -1 0 -1 -3 -4 -3 -0 -1 -0 -1 -0 0 1 0 1 0 0 -1 1 2 1 3 -1 -1
-2 -2 -3 -3 -3 -2 -1 -1 -2 -2 -2 -1 -1 -1 1 0 -2 -1 -1 1 0 -0 -4 -4 -3 -0 -0 -2 -2 -2 -0 1 1 2 1 -1 0 1 0 -0 2 -0 2
-4 -2 -3 -2 -2 -1 -3 -3 -2 -2 1 -1 2 0 0 -1 -1 -0 -2 -1 0 -1 3 0 -1 -1 0 0 -0 -2 -1 0 -0 1 1 -1 -0 2 1 -1 2 -1 1
-2 -2 -2 -3 -2 -3 -1 -1 -2 1 -0 -0 1 -1 -2 -1 1 0 -1 -2 -4 -3 -3 1 0 0 1 -0 -0 -1 -2 -1 1 -1 -0 -0 -0 -0 1 0 -0 -1 2
-2 -3 -3 -2 -2 -1 -2 -1 -1 1 -0 0 0 -0 -0 -1 -1 0 -1 -2 -3 -2 -1 -1 -1 -0 0 0 1 -1 1 0 -0 1 1 0 1 1 1 0 -1 -0 1
0 1 -2 -2 -2 -2 -1 -1 -1 0 1 0 -0 0 -1 -1 -2 -2 -1 -2 -1 0 -1 -2 -2 -1 -0 1 -1 -1 1 1 0 -1 -0 -0 -0 1 2 2 3 2 3
-1 0 -2 -2 -1 -0 -1 -1 -1 -0 1 0 -1 -0 -1 -1 -2 -1 0 1 0 1 1 1 -0 -3 -4 -2 0 -2 -1 0 1 -0 0 0 -0 0 2 4 2 2 3
-0 0 -1 -2 -3 -1 -1 -1 -1 0 1 0 -1 -0 -1 -1 -1 0 -1 -1 -0 -1 -0 -2 -0 1 -0 0 -1 0 -1 -0 0 0 -0 1 1 -0 0 3 3 3 4
1 -0 1 -2 -0 -2 -1 -1 -1 -0 0 -0 0 -0 -1 -1 -1 -0 -0 -0 0 -0 -0 -1 -0 -1 -1 -1 -0 -0 -0 -1 -1 -1 -0 -0 1 1 -1 -0 1 2 2
-4 0 -1 -1 -1 -1 -1 -2 1 0 -1 0 0 -2 -1 -1 -1 -1 -1 -0 0 -1 -2 -2 -1 -0 -1 -0 -2 -1 1 1 1 0 -1 -0 -0 -1 0 -2 -3 -2 1
-2 0 -2 0 -2 0 -1 -1 -1 0 2 1 -3 -1 -1 -1 -0 -1 -0 -1 -2 -2 -2 -1 -1 -1 -1 -0 1 0 -1 -1 0 0 1 2 1 -0 0 1 1 -1 -2
-1 1 0 -0 -1 -1 -0 -0 1 1 -1 1 1 -0 -0 -1 -0 0 -0 -2 -2 -2 -1 -1 -1 -1 -1 -1 -1 -1 -1 -0 0 0 0 0 1 1 0 1 1 1 1
0 0 -0 -0 -0 -1 0 1 -0 0 0 0 1 0 -1 -0 -0 -0 -0 -2 -3 -2 -1 -1 -1 -1 -1 -2 -0 -0 -1 -2 -2 -1 -1 0 1 0 -0 -0 0 1 1
-2 -0 -0 -1 0 0 1 1 0 0 0 0 2 -0 0 1 -1 1 -1 -1 -2 -2 -1 -1 -1 -1 -0 -1 -2 -1 -1 -0 -0 -0 -1 -0 0 -1 0 0 -0 -0 -1
-2 -2 -1 -1 0 1 0 0 -0 -0 -0 -0 1 -0 -1 1 -0 0 -1 -0 -1 -2 -1 -2 -1 -0 -1 -1 -1 -1 -1 -0 -1 -1 -1 -1 -1 -1 -0 -1 1 1 0
-2 -2 -1 1 -0 -0 1 0 0 -1 -0 0 0 0 -1 1 0 0 0 -1 -1 -2 -1 -1 -2 -1 -1 -1 -1 -1 -1 -1 -1 -1 -1 -1 -1 -1 -1 -1 -1 -0 -0
-1 -1 -1 0 1 -1 -0 1 -0 -1 -1 -0 -1 1 1 0 1 0 -0 -0 0 -1 -1 -0 -1 -1 -1 -1 -2 -1 -1 -1 -1 -1 -0 -1 -1 -1 -1 -1 -0 -1 -0
-0 -0 0 0 1 1 -1 -1 1 0 -1 -1 0 -1 -1 1 2 0 0 -0 0 0 -1 -0 -1 -2 -0 -1 -2 -2 -1 -1 -1 -1 -1 -0 -0 -0 -0 -0 -0 0 -0
0 1 1 1 1 1 -0 -0 1 2 2 3 3 2 0 1 -0 -1 1 -0 0 1 0 -0 -0 -1 -1 -0 -2 -1 -2 -1 -1 -1 -1 -1 -1 0 -0 -0 -0 0 1
Height
3109 3104 3098 3090 3083 3077 3071 3065 3058 3051 3044 3037 3031 3025 3020 3016 3012 3008 3004 3001 2998 2994 2989 2984 2979 2975 2970 2965 2960 2955 2951 2946 2939 2937 2937 2938 2937 2936 2937 2938 2940 2941 2942
3100 3094 3087 3080 3073 3067 3060 3053 3047 3041 3035 3028 3023 3018 3012 3008 3005 3001 2998 2995 2990 2986 2981 2975 2971 2965 2960 2954 2949 2943 2939 2934 2928 2923 2924 2925 2924 2924 2924 2924 2928 2930 2932
3090 3083 3077 3071 3065 3060 3054 3048 3041 3033 3027 3021 3015 3009 3005 3001 2998 2995 2991 2987 2984 2978 2973 2967 2961 2955 2949 2943 2937 2930 2926 2921 2916 2911 2910 2910 2911 2912 2911 2912 2916 2918 2920
3081 3075 3070 3064 3059 3053 3046 3038 3031 3024 3017 3012 3008 3002 2998 2994 2991 2988 2984 2981 2976 2970 2964 2958 2952 2944 2937 2931 2924 2919 2914 2909 2905 2902 2900 2898 2898 2900 2899 2901 2904 2906 2909
3074 3069 3062 3056 3050 3044 3036 3029 3022 3015 3009 3004 3000 2995 2992 2988 2985 2981 2978 2973 2967 2962 2956 2950 2943 2935 2927 2921 2915 2909 2904 2899 2895 2892 2890 2888 2888 2889 2890 2892 2893 2896 2898
3067 3060 3054 3048 3041 3033 3026 3020 3013 3007 3001 2997 2992 2989 2985 2982 2978 2974 2970 2966 2960 2954 2947 2941 2933 2926 2919 2913 2907 2901 2896 2890 2887 2883 2881 2880 2880 2880 2881 2884 2885 2887 2889
3058 3052 3046 3039 3032 3025 3018 3011 3004 2999 2994 2990 2986 2983 2980 2976 2972 2968 2964 2959 2954 2947 2940 2932 2924 2918 2911 2905 2899 2893 2888 2884 2880 2877 2874 2873 2872 2873 2873 2875 2876 2878 2880
3051 3045 3037 3031 3025 3017 3011 3004 2998 2993 2988 2984 2980 2977 2974 2970 2966 2962 2957 2953 2947 2941 2934 2925 2917 2911 2905 2899 2892 2886 2881 2877 2873 2870 2868 2867 2866 2866 2866 2867 2868 2869 2872
3043 3036 3030 3023 3017 3011 3005 2998 2992 2986 2981 2977 2974 2972 2969 2965 2961 2956 2952 2947 2941 2935 2928 2920 2912 2906 2900 2894 2886 2881 2876 2871 2867 2865 2862 2861 2860 2860 2861 2861 2862 2862 2865
3035 3028 3022 3016 3010 3004 2997 2991 2986 2981 2976 2973 2970 2967 2963 2960 2956 2951 2946 2941 2935 2929 2923 2916 2908 2901 2895 2889 2881 2876 2870 2866 2862 2860 2858 2856 2854 2854 2855 2855 2857 2857 2859
3027 3021 3015 3009 3002 2996 2991 2985 2980 2976 2972 2968 2965 2962 2958 2955 2951 2947 2941 2935 2929 2924 2917 2911 2904 2898 2892 2885 2879 2874 2868 2862 2858 2856 2854 2853 2851 2850 2850 2851 2851 2853 2855
3019 3013 3008 3001 2995 2989 2984 2979 2975 2971 2967 2963 2960 2957 2954 2950 2947 2942 2936 2931 2925 2919 2914 2907 2900 2895 2890 2884 2878 2873 2867 2861 2857 2854 2852 2851 2850 2849 2849 2849 2849 2850 2851
3011 3006 3000 2994 2987 2982 2977 2972 2969 2965 2962 2959 2956 2953 2949 2946 2942 2938 2933 2927 2922 2917 2911 2904 2898 2892 2888 2883 2877 2872 2866 2861 2858 2855 2853 2852 2850 2850 2849 2849 2849 2849 2851
3003 2998 2992 2987 2980 2975 2970 2966 2963 2960 2956 2953 2951 2948 2945 2942 2938 2934 2929 2924 2919 2914 2909 2903 2897 2891 2885 2881 2877 2872 2866 2862 2858 2856 2854 2853 2852 2851 2851 2850 2850 2851 2851
2995 2990 2985 2979 2974 2969 2965 2961 2958 2955 2952 2948 2946 2943 2941 2938 2935 2931 2926 2921 2916 2912 2907 2901 2896 2891 2886 2881 2876 2872 2867 2863 2859 2856 2855 2853 2853 2852 2852 2851 2851 2851 2850
2987 2982 2976 2971 2966 2962 2958 2955 2952 2949 2946 2943 2941 2939 2937 2934 2931 2927 2923 2918 2914 2909 2904 2899 2895 2890 2885 2880 2876 2872 2868 2864 2860 2857 2855 2853 2853 2852 2852 2852 2851 2851 2850
2978 2973 2968 2964 2960 2956 2953 2949 2947 2944 2941 2938 2936 2934 2932 2930 2927 2924 2920 2916 2911 2906 2902 2897 2893 2889 2884 2880 2875 2872 2868 2865 2862 2858 2856 2853 2852 2851 2851 2851 2851 2850 2850
2970 2965 2961 2957 2953 2950 2947 2944 2941 2938 2936 2933 2931 2929 2928 2926 2924 2921 2917 2913 2909 2904 2900 2896 2892 2888 2884 2880 2875 2872 2868 2864 2861 2859 2856 2853 2851 2849 2849 2849 2849 2849 2850
2963 2958 2954 2950 2947 2943 2941 2938 2935 2933 2930 2928 2926 2924 2923 2922 2920 2917 2914 2911 2908 2903 2899 2895 2891 2887 2883 2879 2875 2871 2868 2865 2862 2859 2856 2854 2851 2849 2848 2847 2846 2846 2847
2956 2952 2948 2944 2940 2937 2934 2932 2930 2927 2925 2923 2921 2919 2918 2917 2915 2913 2911 2908 2905 2902 2898 2894 2889 2885 2882 2878 2874 2871 2867 2864 2861 2859 2856 2854 2852 2850 2848 2846 2845 2844 2844
2949 2945 2941 2937 2934 2931 2928 2926 2924 2922 2920 2917 2915 2914 2912 2911 2910 2909 2907 2905 2902 2899 2896 2892 2888 2884 2880 2877 2873 2870 2867 2864 2861 2858 2856 2853 2851 2849 2848 2846 2845 2844 2843
2942 2938 2934 2930 2927 2924 2922 2921 2919 2917 2915 2912 2910 2908 2907 2906 2905 2904 2902 2900 2898 2896 2893 2890 2886 2883 2879 2875 2872 2868 2865 2862 2859 2857 2854 2852 2850 2848 2846 2845 2844 2843 2842
2935 2931 2927 2924 2921 2918 2916 2915 2913 2911 2909 2906 2904 2903 2901 2900 2899 2898 2897 2895 2894 2891 2889 2886 2884 2881 2877 2874 2870 2866 2863 2860 2857 2855 2852 2850 2848 2846 2845 2843 2842 2841 2840
2928 2924 2920 2917 2914 2912 2910 2908 2906 2905 2903 2901 2899 2897 2895 2894 2893 2892 2890 2889 2888 2886 2884 2882 2880 2877 2874 2871 2867 2864 2860 2857 2854 2852 2850 2847 2845 2844 2842 2841 2840 2839 2838
2920 2916 2913 2910 2907 2905 2903 2901 2900 2898 2896 2895 2893 2891 2890 2888 2886 2885 2884 2882 2881 2880 2878 2877 2875 2872 2870 2867 2864 2860 2856 2853 2850 2847 2846 2844 2842 2840 2839 2838 2837 2836 2835
2912 2909 2906 2903 2900 2898 2895 2893 2892 2891 2889 2887 2886 2884 2883 2881 2879 2878 2876 2875 2874 2873 2872 2871 2869 2867 2865 2862 2859 2856 2853 2849 2845 2843 2841 2840 2838 2837 2836 2834 2833 2832 2832